Regional Weather Roundup
Issued by NWS

Home | Current Version | Previous Version | Text Only | Print | Product List | Glossary On
Versions: 1 2 3 4 5 6 7 8 9 10 11 12 13 14 15 16 17 18 19 20 21 22 23 24 25 26 27 28 29 30 31 32 33 34 35 36 37 38 39 40 41 42 43 44 45 46 47 48 49 50
000
ASUS44 KFWD 312010
RWRTX
NORTH TEXAS HOURLY WEATHER ROUNDUP
NATIONAL WEATHER SERVICE FORT WORTH TX
300 PM CDT FRI OCT 31 2014

NOTE: "FAIR" INDICATES FEW OR NO CLOUDS BELOW 12,000 FEET WITH NO
SIGNIFICANT WEATHER AND/OR OBSTRUCTIONS TO VISIBILITY.

TXZ118-119-312100-
DALLAS/FORT WORTH METROPLEX

CITY           SKY/WX    TMP DP  RH WIND       PRES   REMARKS
DFW AIRPORT    SUNNY     66  40  38 N16G22    30.30F
DALLAS LOVE    SUNNY     66  40  38 N16G25    30.30F
FTW MEACHAM    SUNNY     66  40  38 N15G24    30.30F
DAL-EXECUTIVE  SUNNY     68  39  34 N17G25    30.28F
FTW-ALLIANCE   SUNNY     65  39  38 N15G23    30.31F
FTW-NAS-JRB    SUNNY     66  44  45 N13G23    30.34F
FTW-SPINKS     SUNNY     66  41  39 N20       30.31F
ARLINGTON      SUNNY     67  39  35 N16       30.29F
GRAND PRAIRIE  SUNNY     66  43  42 MISG        N/A
ADDISON        SUNNY     64  37  36 N17G28    30.30F
MESQUITE       SUNNY     64  39  39 N16G23    30.29F
LANCASTER      SUNNY     67  38  34 N13G21    30.29F
$$

TXZ091>094-102>105-117-120-121-131>134-312100-
NORTH CENTRAL TEXAS

CITY           SKY/WX    TMP DP  RH WIND       PRES   REMARKS
SHRMAN/DENISON SUNNY     63  43  48 N15G22    30.33F
GAINESVILLE    SUNNY     62  39  42 N17G24    30.34F
BOWIE          SUNNY     62  38  41 N14G20    30.34F
BRIDGEPORT     SUNNY     65  41  41 N8        30.34F
DECATUR        SUNNY     64  38  38 N10G18    30.32F
DENTON         SUNNY     64  39  39 N18       30.31F
MCKINNEY       SUNNY     64  40  41 N16G25    30.30F
GREENVILLE     SUNNY     64  37  36 N17G23    30.28F
ROCKWALL       SUNNY     64  41  42 N20G25    30.28F
TERRELL        SUNNY     67  39  35 N16G24    30.28F
WAXAHACHIE     SUNNY     66  42  42 N15G25    30.29F
CLEBURNE       SUNNY     66  41  39 N15G22    30.31F
GRANBURY       SUNNY     67  41  39 N9        30.32F
$$

TXZ083>090-098>101-113>116-127>130-139>142-154-155-312100-
WESTERN NORTH TEXAS

CITY           SKY/WX    TMP DP  RH WIND       PRES   REMARKS
WICHITA FALLS  SUNNY     62  37  39 NE17G23   30.36F
WF-KICKAPOO    SUNNY     61  35  38 N15       30.37F
VERNON         SUNNY     63  32  31 NE13G18   30.38F
ABILENE        SUNNY     68  31  25 N8        30.34F
ABILENE-DYESS  SUNNY     66  34  30 N15       30.33F
BRECKENRIDGE   SUNNY     67  35  31 N5G21     30.33F
GRAHAM         SUNNY     65  40  41 N13G20    30.32F
MINERAL WELLS  SUNNY     66  39  37 N15G21    30.31F
STEPHENVILLE   SUNNY     66  38  35 N12G18    30.33F
COMANCHE       SUNNY     67  38  34 N14       30.32F
BROWNWOOD      SUNNY     68  34  28 NW13G18   30.31F
COLEMAN        SUNNY     69  38  33 N8G17     30.32F
BRADY          SUNNY     70  34  26 N15       30.30F
$$

TXZ143>147-156>162-174-175-312100-
CENTRAL TEXAS

CITY           SKY/WX    TMP DP  RH WIND       PRES   REMARKS
WACO           SUNNY     70  41  34 NW14G29   30.27F
WACO-TSTC      SUNNY     70  39  32 NW14        N/A
WACO-MCGREGOR  SUNNY     70  41  35 N15G21    30.28F
HILLSBORO      SUNNY     68  39  34 N15G22    30.28F
CORSICANA      SUNNY     68  40  35 N18       30.27F
MEXIA          SUNNY     68  42  39 N9G23     30.25F
HEARNE         SUNNY     72  42  33 N17       30.23F
CAMERON        SUNNY     73  41  31 N13G23    30.24F
TEMPLE         SUNNY     72  37  28 N18G26    30.25F
KILLEEN        SUNNY     70  37  29 N14G24    30.26F
KILLEEN-SKYLRK SUNNY     72  39  30 N13G21    30.24F
GATESVILLE     SUNNY     70  37  30 N10       30.29F
HAMILTON       SUNNY     69  36  30 N16G23    30.30F
LAMPASAS       SUNNY     71  40  33 N12       30.26F
$$

TXZ095>097-106>112-122>126-135>138-148>153-164>167-312100-
EAST TEXAS

CITY           SKY/WX    TMP DP  RH WIND       PRES   REMARKS
PARIS          SUNNY     61  39  44 N15G23    30.29S
SULPHUR SPRNGS MOSUNNY   65  44  47 N22       30.29S
MOUNT PLEASANT SUNNY     65  41  41 N13G25    30.26S
MINEOLA          N/A     66  39  37 N13G18    30.26F
TYLER          SUNNY     69  41  36 N18G24    30.23F
LONGVIEW       SUNNY     68  44  42 N12G22    30.20F
MARSHALL       SUNNY     71  45  39 N10       30.22F
ATHENS         SUNNY     64  41  42 NW12G18   30.24F
PALESTINE      SUNNY     69  43  38 N13       30.24F
JACKSONVILLE   SUNNY     68  41  37 NW8G17    30.23F
HENDERSON      MOSUNNY   68  43  41 N12G18    30.22S
NACOGDOCHES    SUNNY     72  43  35 NW12      30.19F
LUFKIN         SUNNY     75  43  31 N12G17    30.18F
$$

SUPPLEMENTAL OBSERVATIONS (CENTRAL)

CITY           SKY/WX    TMP DP  RH WIND       PRES   REMARKS
CADDO GRASSLND   N/A     64  43  45 N6G17       N/A
PAT MAYSE LAKE   N/A     61  41  48 NW17        N/A
GREENVILLE       N/A     64  41  42 N17G25      N/A
CEDAR HILL       N/A     66  39  37 N10G20      N/A
PALESTINE        N/A     72  45  37 N10         N/A
MCGREGOR         N/A     72  39  30 N9G20       N/A
TEMPLE           N/A     72  39  30 N3G16       N/A
$$

SUPPLEMENTAL OBSERVATIONS (WEST)

CITY           SKY/WX    TMP DP  RH WIND       PRES   REMARKS
MILLERS CREEK    N/A     64  39  39 NE10G18     N/A
POSSUM KINGDOM   N/A     66  36  32 VRB10       N/A
LBJ GRASSLAND    N/A     64  37  36 N13         N/A
GRANBURY         N/A     66  39  37 N10         N/A
HAMBY            N/A     66  32  28 N9G17       N/A
COLORADO BEND    N/A     72  34  25 N9          N/A
$$

SUPPLEMENTAL OBSERVATIONS (EAST)

CITY           SKY/WX    TMP DP  RH WIND       PRES   REMARKS
TEXARKANA        N/A     68  41  37 N7G18       N/A
LINDEN           N/A     68  43  40 N3          N/A
LUFKIN           N/A     73  43  33 MISG        N/A
N SABINE NF      N/A     73  45  35 MISG        N/A
$$

SUPPLEMENTAL OBSERVATIONS ARE A COLLECTION OF AUTOMATED INSTRUMENTS
THAT ARE MAINTAINED BY A VARIETY OF FEDERAL AND STATE AGENCIES.
CERTAIN ELEMENTS...SUCH AS HUMIDITY VALUES AND SUSTAINED WIND
SPEEDS...MAY BE APPROXIMATED.




USA.gov is the U.S. government's official web portal to all federal, state and local government web resources and services.